Regional Weather Roundup
Issued by NWS

Home | Current Version | Previous Version | Text Only | Print | Product List | Glossary Off
Versions: 1 2 3 4 5 6 7 8 9 10 11 12 13 14 15 16 17 18 19 20 21 22 23 24 25 26 27 28 29 30 31 32 33 34 35 36 37 38 39 40 41 42 43 44 45 46 47 48 49 50

000
ASUS45 KCYS 241110
RWRWY

WYOMING REGIONAL WEATHER ROUNDUP
NATIONAL WEATHER SERVICE CHEYENNE WY
500 AM MDT TUE MAY 24 2016

NOTE:  "FAIR" INDICATES FEW OR NO CLOUDS BELOW 12,000 FEET
WITH NO SIGNIFICANT WEATHER AND/OR OBSTRUCTIONS TO VISIBILITY.

WYZ001-241200-
YELLOWSTONE NATIONAL PARK

CITY           SKY/WX    TMP DP  RH WIND       PRES   REMARKS
LK YELLOWSTONE   N/A     27  24  89 CALM      29.96R
W YELLOWSTONE  NOT AVBL

$$
WYZ002>013-054>058-071-098>099-241200-
NORTHERN WYOMING

CITY           SKY/WX    TMP DP  RH WIND       PRES   REMARKS
JACKSON        FAIR      28  28 100 N6        29.94S WCI  22
CODY           FAIR      36  30  80 S5        29.90S WCI  32
GREYBULL       FAIR      41  31  67 CALM      29.87R
WORLAND        FAIR      35  30  82 CALM      29.88R
SHERIDAN       FAIR      35  30  82 CALM      29.91R
BUFFALO        FAIR      41  31  67 SW5       29.92S
GILLETTE       FAIR      32  30  92 S7        29.90R WCI  26
HULETT         FAIR      43  32  65 CALM      29.91R
NEWCASTLE      FAIR      41  28  60 N5        29.89F

$$
WYZ014>020-022>026-101>103-241200-
CENTRAL WYOMING

CITY           SKY/WX    TMP DP  RH WIND       PRES   REMARKS
BIG PINEY      FAIR      28  26  92 NE3       29.96S
PINEDALE       FAIR      28  28 100 MISG      29.97S
DUBOIS         CLOUDY    32  25  74 NW9       29.94R WCI  24
LANDER         FAIR      40  27  59 NW7       29.89S
RIVERTON       FAIR      40  26  57 NW7       29.91R
CASPER         FAIR      35  29  78 NW5       29.93R WCI  31
DOUGLAS        FAIR      37  33  85 CALM      29.92R

$$
WYZ021-027>030-104>119-241200-
SOUTHERN WYOMING

CITY           SKY/WX    TMP DP  RH WIND       PRES   REMARKS
EVANSTON       CLOUDY    40  30  67 NW6       29.92S
KEMMERER         N/A     34  28  80 CALM      29.95R
FORT BRIDGER   CLOUDY    41  34  75 S7        29.96S
ROCK SPRINGS   FAIR      43  32  65 SE12      29.94S
DIXON          FAIR      37  31  76 E6        29.96R WCI  33
RAWLINS        FAIR      33  29  85 NW8       29.96S WCI  26
SARATOGA       FAIR      34  30  86 S8        29.97S WCI  27
LARAMIE        FAIR      32  30  92 S6        29.98S WCI  26
CHEYENNE       FAIR      39  35  86 W7        29.95S WCI  34
TORRINGTON     FAIR      42  39  89 N5        29.89R
PINE BLUFFS    FAIR      36  34  93 SW5       29.94R WCI  32

$$



USA.gov is the U.S. government's official web portal to all federal, state and local government web resources and services.